PST,Max TemperatureF,Mean TemperatureF,Min TemperatureF,Max Dew PointF,MeanDew PointF,Min DewpointF,Max Humidity, Mean Humidity, Min Humidity, Max Sea Level PressureIn, Mean Sea Level PressureIn, Min Sea Level PressureIn, Max VisibilityMiles, Mean VisibilityMiles, Min VisibilityMiles, Max Wind SpeedMPH, Mean Wind SpeedMPH, Max Gust SpeedMPH,PrecipitationIn, CloudCover, Events, WindDirDegrees
2013-1-1,33,32,30,27,26,24,85,77,69,30.69,30.64,30.57,10,10,10,12,2,13,0.00,8,,342
2013-1-2,33,31,29,26,25,24,85,77,69,30.67,30.62,30.56,10,10,10,10,7,13,0.00,8,,339
2013-1-3,32,26,20,25,22,18,100,86,72,30.53,30.47,30.42,10,8,0,8,2,9,0.00,4,Fog,29
2013-1-4,35,29,22,26,24,21,96,80,64,30.50,30.46,30.43,10,10,10,12,2,15,0.00,6,,337
2013-1-5,34,32,29,29,26,24,92,84,75,30.46,30.37,30.27,10,8,2,9,3,10,0.01,8,Snow,235
2013-1-6,33,29,24,29,27,24,92,85,78,30.28,30.22,30.13,10,8,6,10,3,13,0.00,4,,286
2013-1-7,51,41,30,41,34,28,100,83,66,30.11,30.00,29.90,10,6,2,29,6,37,0.23,5,Rain,242
2013-1-8,51,45,39,41,39,35,89,78,66,30.15,30.05,29.91,10,10,8,23,10,29,0.03,5,Rain,183
2013-1-9,55,46,36,39,35,29,82,66,50,29.89,29.78,29.65,10,10,10,30,10,36,0.00,3,,209
2013-1-10,42,34,26,28,25,19,85,67,49,30.05,29.96,29.87,10,10,10,17,4,22,0.00,5,,318
2013-1-11,39,30,21,27,22,15,96,75,53,30.33,30.22,30.06,10,9,1,16,8,18,T,4,Snow,315
2013-1-12,33,24,15,24,18,13,92,75,58,30.45,30.38,30.32,10,10,4,10,3,13,0.00,0,,334
2013-1-13,31,23,15,22,19,14,96,77,58,30.53,30.49,30.45,10,10,10,7,2,10,0.00,4,,322
2013-1-14,36,30,23,25,23,21,92,78,64,30.54,30.46,30.37,10,9,6,7,1,8,0.00,4,,327
2013-1-15,36,28,19,27,22,17,96,83,69,30.68,30.63,30.54,10,7,5,7,1,8,0.00,0,,301
2013-1-16,30,24,18,26,23,16,92,87,81,30.69,30.65,30.62,9,7,3,9,3,12,0.00,7,,355
2013-1-17,32,30,28,26,25,24,92,85,78,30.65,30.57,30.48,10,8,6,8,3,9,0.00,8,,166
2013-1-18,32,30,28,27,25,25,92,85,78,30.46,30.40,30.36,10,7,2,9,4,10,0.00,8,,263
2013-1-19,30,30,29,26,25,24,92,85,78,30.55,30.49,30.42,10,6,2,8,2,10,T,8,Snow,320
2013-1-20,31,30,29,25,24,24,85,82,78,30.62,30.56,30.51,10,8,4,7,3,8,T,8,,125
2013-1-21,29,28,26,25,23,22,85,82,78,30.51,30.45,30.42,10,7,1,9,3,10,T,8,Snow,22
2013-1-22,27,26,25,22,21,19,88,82,75,30.43,30.35,30.27,10,10,7,9,5,12,0.00,8,,327
2013-1-23,30,28,26,25,23,21,85,80,75,30.26,30.14,30.03,10,9,6,13,4,15,0.02,8,Snow,298
2013-1-24,36,27,18,27,25,17,100,85,70,30.33,30.26,30.19,10,8,5,12,5,14,T,5,Rain,330
2013-1-25,34,32,29,32,29,27,96,89,82,30.22,30.10,30.01,8,6,3,9,2,10,0.04,7,Rain,297
2013-1-26,37,35,32,34,32,30,100,93,85,30.05,30.00,29.97,9,4,0,6,2,8,0.03,8,Fog-Rain,338
2013-1-27,44,38,31,34,32,30,96,81,65,30.09,30.04,29.99,10,9,5,18,2,22,0.00,6,,264
2013-1-28,43,36,28,34,32,27,100,84,67,30.01,29.97,29.93,10,10,10,24,7,30,0.00,4,,229
2013-1-29,48,41,33,38,34,30,89,75,60,30.24,30.15,29.96,10,10,10,21,7,26,0.00,4,,232
2013-1-30,55,49,42,40,38,36,82,71,59,30.29,30.24,30.21,10,10,10,22,10,25,0.00,1,,216
2013-1-31,56,48,40,41,39,37,83,69,55,30.32,30.28,30.24,10,10,10,18,8,21,T,4,,211